Regional Weather Roundup
Issued by NWS Austin/San Antonio, TX

Home | Current Version | Previous Version | Text Only | Print | Product List | Glossary On
Versions: 1 2 3 4 5 6 7 8 9 10 11 12 13 14 15 16 17 18 19 20 21 22 23 24 25 26 27 28 29 30 31 32 33 34 35 36 37 38 39 40 41 42 43 44 45 46 47 48 49 50
000
ASUS44 KEWX 192010
RWREWX
SOUTH TEXAS REGIONAL WEATHER ROUNDUP
NATIONAL WEATHER SERVICE AUSTIN/SAN ANTONIO TX
300 PM CDT THU OCT 19 2017

NOTE: "FAIR" INDICATED FEW OR NO CLOUDS BELOW 12,000 FEET WITH NO
SIGNIFICANT WEATHER AND/OR OBSTRUCTIONS TO VISIBILITY.

* - THESE STATIONS ARE NOT NWS OR FAA STATIONS...AND ARE NOT SUBJECT
    TO NWS AND FAA QUALITY CONTROL.

TXZ171-172-183>190-192100-
TEXAS HILL COUNTRY AND EDWARDS PLATEAU

CITY           SKY/WX    TMP DP  RH WIND       PRES   REMARKS
JUNCTION       FAIR      77  53  43 S13       30.08F
*LLANO         FAIR      82  55  39 E9        30.09F
BURNET         FAIR      79  57  46 SE9G16    30.10F
*HORSESHOE BAY FAIR      81  58  45 S10       30.08F
*KERRVILLE     FAIR      78  62  58 S15       30.09F
*FREDERICKSBRG FAIR      76  55  47 SE7G20    30.09F
*ROCKSPRINGS   NOT AVBL
*BOERNE STAGE  PTSUNNY   79  59  50 S8G16     30.09F
*CASTROVILLE   FAIR      83  57  41 S14       30.06F
HONDO          PTSUNNY   83  62  49 SE10      30.06F
*UVALDE        FAIR      78  60  55 SE10G17   30.06F
DEL RIO        FAIR      79  62  56 SE15      30.02F
LAUGHLIN AFB   PTSUNNY   78  62  56 SE17      30.03F
CARRIZO SPRGS  FAIR      81  61  50 SE14G20   30.02F
*EAGLE PASS    NOT AVBL
$$

TXZ173-191>194-202-209-217>225-228-192100-
CENTRAL AND SOUTH CENTRAL TEXAS

CITY           SKY/WX    TMP DP  RH WIND       PRES   REMARKS
GEORGETOWN     FAIR      81  57  43 SE7       30.10F
AUSTIN/BERGSTM PTSUNNY   81  60  48 E5        30.07F
AUSTIN/MABRY   FAIR      82  60  47 VRB6      30.08F
*AUSTIN/EXEC   FAIR      79  57  47 SE8       30.08F
*LAGO VISTA    FAIR      79  60  51 E6        30.10F
SAN MARCOS     FAIR      82  61  48 SE7       30.08F
NEW BRAUNFELS  FAIR      82  61  48 CALM      30.05F
RANDOLPH AFB   FAIR      82  61  49 S8        30.06F
PT SAN ANTONIO FAIR      83  61  47 SE12      30.04F
SAN ANTONIO    PTSUNNY   81  60  48 E13       30.06F
STINSON FIELD  PTSUNNY   84  63  49 E9        30.03F
*LA GRANGE     CLOUDY    84  63  48 E7        30.05F
*GIDDINGS      FAIR      83  58  42 S5        30.08F
*GONZALES      FAIR      83  63  50 SE5       30.06F
$$

TXZ163>164-176>182-195>201-210>213-226-227-235-192100-
SOUTHEAST TEXAS

CITY           SKY/WX    TMP DP  RH WIND       PRES   REMARKS
COLLEGE STN    FAIR      83  59  44 CALM      30.07F
*BRYAN         FAIR      84  60  44 SE12      30.09F
*CALDWELL      FAIR      82  61  49 SE7       30.08F
*CROCKETT        N/A     82  61  47 CALM      30.13F
*BRENHAM       FAIR      84  61  44 SE5       30.09F
HUNTSVILLE     FAIR      84  57  39 CALM      30.09F
CONROE         FAIR      82  63  52 E6        30.09F
HOUSTON BUSH   PTSUNNY   83  64  52 VRB7      30.08F
HOUSTON HOBBY  PTSUNNY   83  64  52 SE8       30.08F
*HOUSTON SW AP FAIR      81  65  58 SE10G17   30.09S
PEARLAND       PTSUNNY   83  63  50 E13       30.10F
HOUSTON HOOKS  FAIR      82  61  48 SE10      30.08F
ELLINGTON FLD  PTSUNNY   79  66  65 SE9       30.11F
SUGAR LAND     FAIR      83  63  50 E8        30.07F
*HOUSTON EXEC  FAIR      84  63  48 SE8       30.08F
*CLEVELAND MUN FAIR      82  59  45 E3        30.10F
*WHARTON       FAIR      83  58  42 E7        30.07F
*COLUMBUS      PTSUNNY   82  59  44 W6        30.08F
*EAGLE LAKE    MOCLDY    85  62  45 SE7       30.06F
$$

TXZ214>216-236>238-192100-
THE UPPER TEXAS COAST

CITY           SKY/WX    TMP DP  RH WIND       PRES   REMARKS
*ORANGE        FAIR      81  57  43 NE8       30.12F
PORT ARTHUR    FAIR      82  56  40 NE12G17   30.10F
GALVESTON      FAIR      79  65  62 E16       30.09F
ANGLETON       PTSUNNY   80  66  62 E10       30.07F
*BAY CITY      PTSUNNY   82  66  59 E12       30.06S
PALACIOS       PTSUNNY   79  65  62 E14       30.06F
$$

TXZ229>234-239>247-192100-
TEXAS COASTAL BEND AND RIO GRANDE PLAINS

CITY           SKY/WX    TMP DP  RH WIND       PRES   REMARKS
VICTORIA       LGT RAIN  77  71  82 SE6       30.06F
*BEEVILLE      CLOUDY    86  58  38 E12       30.03F
ROCKPORT       PTSUNNY   82  71  69 E13       30.03F
*PORT ARANSAS  NOT AVBL
*PORT LAVACA   CLOUDY    83  67  58 E16       30.06F
*INGLESIDE     NOT AVBL
CORPUS CHRISTI CLOUDY    83  64  52 E13       30.02F
CORPUS NAS     CLOUDY    83  71  67 NE13      30.02F
*ROBSTOWN      CLOUDY    83  65  53 E16       30.02F
ALICE          CLOUDY    84  66  54 E10       30.01F
KINGSVILLE NAS LGT RAIN  82  71  69 E13       30.01F
COTULLA        FAIR      84  60  44 SE14      30.02F
*FAITH RANCH   SUNNY     82  61  47 SE9       30.02F
LAREDO         FAIR      87  62  43 SE13      30.01F
$$

TXZ248>255-192100-
DEEP SOUTH TEXAS

CITY           SKY/WX    TMP DP  RH WIND       PRES   REMARKS
BROWNSVILLE    CLOUDY    85  71  63 NE10      29.99F HX  90
PORT ISABEL    CLOUDY    84  71  65 E12       29.99F
*SOUTH PADRE   NOT AVBL
HARLINGEN      CLOUDY    82  71  69 NE12      29.99F
*HEBBRONVILLE  PTSUNNY   85  61  45 SE13      30.02F
MCALLEN        FAIR      89  65  44 E10       29.98F HX  91
*WESLACO       FAIR      87  66  50 E12G17    29.98F
FALFURRIAS     CLOUDY    82  67  60 CALM      30.01F
EDINBURG       FAIR      87  65  47 E10       30.00F
*ZAPATA        FAIR      87  57  35 E9        29.99F
$$

TXZ213>215-236>238-242>244-246-247-251-254-255-192100-
CMAN STATIONS

STATION/POSITION TIME  TEMP    WIND        PRES    WAVE
                       AIR SEA DIR/SP/G            HT/PER
                 (UTC) (F)     (DEG/KT/KT) (MB)    (FT/S)
SABINE PASS      1948   75 77  110/ 14/ 19 1020.8
SEA RIM ST PARK  2000   76     100/ 14/ 17 1019.9
NORTH JETTY/GLS  1936      77   80/ 18/ 22 1018.6
EAGLE POINT      1948   75 75  120/ 12/ 15 1019.2
MORGANS POINT    1948   77 77  130/  9/ 14 1019.1
PORT O`CONNOR    1948   77 76   90/ 12/ 14 1017.3
MALAQUITE BEACH  1948   79 78   60/ 13/ 15 1016.2
BAFFIN BAY       1948   76 76   50/ 14/ 16 1016.7
PORT ISABEL      1948   80 79   30/  7/ 10 1015.6
$$




USA.gov is the U.S. government's official web portal to all federal, state and local government web resources and services.